EW6576 Weather Reports


time (UTC)temp
C
wind
direction
speed
KPH
gust
KPH
rain 1hr
cm
rain 24hr
cm
rain mn
cm
humidity
%
barometer
mb
20260507124912 11 172 0.0 0.0 0.00 0.00 0.00 99 1016.0
20260507124408 11 173 0.0 0.0 0.00 0.00 0.00 99 1016.0
20260507123907 11 173 0.0 0.0 0.00 0.00 0.00 99 1015.9
20260507123403 11 173 0.0 0.0 0.00 0.00 0.00 99 1016.1
20260507122900 11 173 0.0 0.0 0.00 0.00 0.00 99 1016.1
20260507122355 11 173 0.0 0.0 0.00 0.00 0.00 99 1015.9
20260507121851 11 173 0.0 0.0 0.00 0.00 0.00 99 1016.0
20260507121347 11 173 0.0 0.0 0.00 0.00 0.00 99 1015.6
20260507120844 11 172 0.0 0.0 0.00 0.00 0.00 99 1015.8
20260507120340 11 172 0.0 0.0 0.00 0.00 0.00 99 1015.8
20260507115836 10 172 0.0 0.0 0.00 0.00 0.00 99 1016.0
20260507115332 10 172 0.0 0.0 0.00 0.00 0.00 99 1015.8
20260507114828 10 171 0.0 0.0 0.00 0.00 0.00 99 1016.0
20260507114325 10 172 0.0 0.0 0.00 0.00 0.00 99 1016.1
20260507113823 10 172 0.0 0.0 0.00 0.00 0.00 99 1015.8
20260507113320 10 162 0.0 0.0 0.00 0.00 0.00 99 1015.9
20260507112817 10 162 0.0 0.0 0.00 0.00 0.00 99 1015.7
20260507112314 10 161 0.0 0.0 0.00 0.00 0.00 99 1015.8
20260507111812 10 162 0.0 0.0 0.00 0.00 0.00 99 1016.1
20260507111308 10 162 0.0 0.0 0.00 0.00 0.00 99 1016.1
20260507110804 10 162 0.0 0.0 0.00 0.00 0.00 99 1015.9
20260507110301 10 163 0.0 0.0 0.00 0.00 0.00 99 1016.1
20260507105758 10 138 0.0 0.0 0.00 0.00 0.00 99 1016.1
20260507105254 10 142 0.0 0.0 0.00 0.00 0.00 99 1016.1
20260507104752 10 141 0.0 0.0 0.00 0.00 0.00 99 1016.1
20260507104248 10 141 0.0 0.0 0.00 0.00 0.00 99 1015.9
20260507103744 10 140 0.0 0.0 0.00 0.00 0.00 99 1016.1
20260507103240 10 142 0.0 0.0 0.00 0.00 0.00 99 1016.5
20260507102737 10 143 0.0 0.0 0.00 0.00 0.00 99 1016.2
20260507102233 10 107 0.0 0.0 0.00 0.00 0.00 99 1016.3
20260507101730 10 107 0.0 0.0 0.00 0.00 0.00 99 1016.3
20260507101225 10 125 0.0 0.0 0.00 0.00 0.00 99 1016.3
20260507100722 10 125 0.0 0.0 0.00 0.00 0.00 98 1016.3
20260507100221 10 125 0.0 0.0 0.00 0.00 0.00 99 1016.1
20260507095718 10 126 0.0 0.0 0.00 0.00 0.00 98 1016.5
20260507095215 10 126 0.0 0.0 0.00 0.00 0.00 98 1016.5
20260507094712 10 126 0.0 0.0 0.00 0.00 0.00 98 1016.6
20260507094209 10 126 0.0 0.0 0.00 0.00 0.00 98 1016.9
20260507093705 10 126 0.0 0.0 0.00 0.00 0.00 98 1016.6
20260507093204 10 126 0.0 0.0 0.00 0.00 0.00 98 1016.7
20260507092701 10 126 0.0 0.0 0.00 0.00 0.00 98 1016.8
20260507092157 10 126 0.0 0.0 0.00 0.00 0.00 98 1016.7
20260507091654 10 126 0.0 0.0 0.00 0.00 0.00 98 1016.7
20260507091150 10 126 0.0 0.0 0.00 0.00 0.00 98 1016.7
20260507090646 10 126 0.0 0.0 0.00 0.00 0.00 98 1016.7
20260507090143 10 126 0.0 0.0 0.00 0.00 0.00 98 1016.7
20260507085640 10 126 0.0 0.0 0.00 0.00 0.00 98 1016.8
20260507085137 10 126 0.0 0.0 0.00 0.00 0.00 98 1017.0
20260507084634 10 127 0.0 0.0 0.00 0.00 0.00 98 1017.1
20260507084130 10 126 0.0 0.0 0.00 0.00 0.00 98 1017.0
20260507083627 10 126 0.0 0.0 0.00 0.00 0.00 97 1017.0
20260507083124 10 127 0.0 0.0 0.00 0.00 0.00 98 1017.1
20260507082619 10 127 1.6 1.6 0.00 0.00 0.00 98 1017.0
20260507082116 10 125 0.0 0.0 0.00 0.00 0.00 97 1017.1
20260507081613 10 132 0.0 0.0 0.00 0.00 0.00 97 1017.3
20260507081109 10 134 0.0 0.0 0.00 0.00 0.00 97 1017.2
20260507080606 10 134 0.0 0.0 0.00 0.00 0.00 97 1017.3
20260507075557 10 134 0.0 0.0 0.00 0.00 0.00 97 1017.3
20260507075054 10 134 0.0 0.0 0.00 0.00 0.00 97 1017.4
20260507074551 10 134 0.0 0.0 0.00 0.00 0.00 97 1017.5
20260507074049 10 135 0.0 0.0 0.00 0.00 0.00 96 1017.5
20260507073545 11 135 0.0 0.0 0.00 0.00 0.00 96 1017.5
20260507073042 11 139 0.0 0.0 0.00 0.00 0.00 96 1017.5
20260507072539 11 127 0.0 0.0 0.00 0.00 0.00 96 1017.3
20260507072036 11 127 0.0 0.0 0.00 0.00 0.00 96 1017.4
20260507071533 11 111 0.0 0.0 0.00 0.00 0.00 96 1017.6
20260507071030 11 109 1.6 1.6 0.00 0.00 0.00 96 1017.7
20260507070527 11 166 0.0 0.0 0.00 0.00 0.00 96 1017.5
20260507070024 11 178 0.0 0.0 0.00 0.00 0.00 96 1017.7
20260507065520 11 113 0.0 0.0 0.00 0.00 0.00 96 1017.4
20260507065018 11 113 1.6 1.6 0.00 0.00 0.00 96 1017.4
20260507064515 11 114 0.0 0.0 0.00 0.00 0.00 96 1017.5
20260507064014 11 114 0.0 1.6 0.00 0.00 0.00 96 1017.5
20260507063510 11 113 0.0 1.6 0.00 0.00 0.00 96 1017.7
20260507063008 11 123 0.0 1.6 0.00 0.00 0.00 95 1017.5
20260507062504 11 156 0.0 0.0 0.00 0.00 0.00 95 1017.7
20260507062002 11 156 0.0 0.0 0.00 0.00 0.00 95 1017.6
20260507061459 11 157 0.0 0.0 0.00 0.00 0.00 95 1017.8
20260507060958 11 156 0.0 0.0 0.00 0.00 0.00 95 1017.6
20260507060454 12 165 0.0 0.0 0.00 0.00 0.00 95 1017.7
20260507055951 12 162 0.0 0.0 0.00 0.00 0.00 95 1017.7
20260507055446 12 127 0.0 0.0 0.00 0.00 0.00 95 1017.7
20260507054943 11 127 0.0 0.0 0.00 0.00 0.00 95 1017.7
20260507054439 12 132 0.0 0.0 0.00 0.00 0.00 95 1017.7
20260507053937 12 131 0.0 0.0 0.00 0.00 0.00 95 1017.5
20260507053434 12 133 0.0 0.0 0.00 0.00 0.00 95 1017.6
20260507052932 12 133 0.0 0.0 0.00 0.00 0.00 95 1017.6
20260507052430 12 134 0.0 0.0 0.00 0.00 0.00 94 1017.5
20260507051927 12 134 0.0 0.0 0.00 0.00 0.00 94 1017.8
20260507051424 12 140 0.0 0.0 0.00 0.00 0.00 94 1017.5
20260507050921 12 144 0.0 0.0 0.00 0.00 0.00 94 1017.6
20260507050418 12 120 0.0 0.0 0.00 0.00 0.00 94 1017.5
20260507045915 12 119 0.0 0.0 0.00 0.00 0.00 93 1017.2
20260507045411 12 118 0.0 0.0 0.00 0.00 0.00 93 1017.4
20260507044908 12 154 0.0 0.0 0.00 0.00 0.00 94 1017.4
20260507044405 12 112 1.6 1.6 0.00 0.00 0.00 93 1017.5
20260507043901 12 153 1.6 1.6 0.00 0.00 0.00 93 1017.3
20260507043357 12 108 1.6 1.6 0.00 0.00 0.00 93 1017.4
20260507042853 13 114 1.6 1.6 0.00 0.00 0.00 92 1017.5
20260507042350 13 112 0.0 1.6 0.00 0.00 0.00 92 1017.3
20260507041846 13 122 0.0 0.0 0.00 0.00 0.00 91 1017.3
20260507041343 13 117 1.6 1.6 0.00 0.00 0.00 90 1017.2
20260507040841 13 130 0.0 0.0 0.00 0.00 0.00 90 1017.2
20260507040336 13 130 0.0 0.0 0.00 0.00 0.00 89 1017.1
20260507035832 14 136 0.0 0.0 0.00 0.00 0.00 89 1017.1
20260507035328 14 136 0.0 0.0 0.00 0.00 0.00 88 1017.4
20260507034826 15 165 0.0 1.6 0.00 0.00 0.00 88 1017.2
20260507034323 15 163 0.0 0.0 0.00 0.00 0.00 88 1017.0
20260507033821 15 157 0.0 1.6 0.00 0.00 0.00 88 1017.2
20260507033318 15 146 0.0 0.0 0.00 0.00 0.00 87 1016.9
20260507032815 15 180 0.0 0.0 0.00 0.00 0.00 87 1017.0
20260507032311 15 213 0.0 0.0 0.00 0.00 0.00 86 1017.0
20260507031808 15 176 0.0 0.0 0.00 0.00 0.00 85 1016.9
20260507031305 15 155 0.0 0.0 0.00 0.00 0.00 85 1017.0
20260507030801 15 193 1.6 1.6 0.00 0.00 0.00 85 1016.8
20260507030259 16 137 0.0 1.6 0.00 0.00 0.00 84 1016.7
20260507025756 16 125 3.2 4.8 0.00 0.00 0.00 83 1016.9
20260507025253 16 132 4.8 4.8 0.00 0.00 0.00 82 1016.8
20260507024751 16 141 4.8 4.8 0.00 0.00 0.00 82 1016.6
20260507024248 16 120 3.2 3.2 0.00 0.00 0.00 81 1016.8
20260507023743 16 113 3.2 3.2 0.00 0.00 0.00 80 1016.7
20260507023240 16 127 4.8 4.8 0.00 0.00 0.00 79 1016.5
20260507022738 16 121 3.2 3.2 0.00 0.00 0.00 78 1016.6
20260507022233 16 125 3.2 3.2 0.00 0.00 0.00 77 1016.5
20260507021730 17 122 3.2 3.2 0.00 0.00 0.00 76 1016.5
20260507021225 17 128 4.8 4.8 0.00 0.00 0.00 76 1016.5
20260507020724 17 104 3.2 3.2 0.00 0.00 0.00 74 1016.3
20260507020220 17 88 4.8 4.8 0.00 0.00 0.00 73 1016.2
20260507015718 17 116 4.8 8.0 0.00 0.00 0.00 73 1016.3
20260507015215 17 163 3.2 3.2 0.00 0.00 0.00 73 1016.2
20260507014712 17 121 3.2 3.2 0.00 0.00 0.00 72 1016.3
20260507014208 17 144 3.2 4.8 0.00 0.00 0.00 71 1016.2
20260507013705 17 120 4.8 4.8 0.00 0.00 0.00 72 1016.1
20260507013202 18 166 4.8 4.8 0.00 0.00 0.00 72 1016.2
20260507012700 18 131 1.6 1.6 0.00 0.00 0.00 72 1016.1
20260507012155 18 67 4.8 4.8 0.00 0.00 0.00 71 1016.0
20260507011653 18 128 8.0 8.0 0.00 0.00 0.00 71 1015.9
20260507011149 18 158 6.4 9.7 0.00 0.00 0.00 72 1015.9
20260507010644 18 137 11.3 12.9 0.00 0.00 0.00 71 1016.3
20260507010140 19 129 6.4 8.0 0.00 0.00 0.00 71 1015.8
20260507005637 19 99 4.8 8.0 0.00 0.00 0.00 70 1016.0
20260507005133 19 179 4.8 4.8 0.00 0.00 0.00 71 1016.1
20260507004630 19 104 6.4 9.7 0.00 0.00 0.00 71 1016.0
20260507004128 19 83 8.0 12.9 0.00 0.00 0.00 71 1016.1
20260507003624 19 92 6.4 9.7 0.00 0.00 0.00 70 1015.9
20260507003120 19 106 9.7 12.9 0.00 0.00 0.00 70 1016.0
20260507002616 20 133 8.0 14.5 0.00 0.00 0.00 66 1015.7
20260507002111 20 125 3.2 3.2 0.00 0.00 0.00 67 1015.9
20260507001608 20 148 4.8 9.7 0.00 0.00 0.00 66 1016.0
20260507001106 20 197 1.6 1.6 0.00 0.00 0.00 65 1015.8
20260507000602 20 82 11.3 14.5 0.00 0.00 0.00 65 1015.6
20260507000058 20 288 11.3 17.7 0.00 0.00 0.00 66 1015.6
20260506235555 20 180 4.8 4.8 0.00 0.00 0.00 64 1015.7
20260506235050 20 170 4.8 4.8 0.00 0.00 0.00 63 1015.6
20260506234548 20 173 8.0 9.7 0.00 0.00 0.00 64 1015.5
20260506234045 20 116 1.6 1.6 0.00 0.00 0.00 65 1015.5
20260506233542 20 177 1.6 3.2 0.00 0.00 0.00 66 1015.6
20260506233039 21 65 8.0 9.7 0.00 0.00 0.00 63 1015.6
20260506232535 20 90 11.3 12.9 0.00 0.00 0.00 64 1015.7
20260506232030 20 125 4.8 9.7 0.00 0.00 0.00 67 1015.6
20260506231528 20 136 9.7 12.9 0.00 0.00 0.00 65 1015.7
20260506231026 21 121 6.4 8.0 0.00 0.00 0.00 62 1015.6
20260506230522 21 111 6.4 8.0 0.00 0.00 0.00 63 1016.0
20260506230020 20 108 1.6 4.8 0.00 0.00 0.00 66 1015.7
20260506225516 21 206 8.0 9.7 0.00 0.00 0.00 65 1016.0
20260506225013 21 166 6.4 8.0 0.00 0.00 0.00 64 1015.8
20260506224509 21 222 6.4 9.7 0.00 0.00 0.00 64 1015.8
20260506224006 20 218 4.8 4.8 0.00 0.00 0.00 65 1016.0
20260506223502 21 166 4.8 8.0 0.00 0.00 0.00 64 1015.9
20260506222959 21 142 1.6 3.2 0.00 0.00 0.00 64 1015.9
20260506222455 21 122 3.2 4.8 0.00 0.00 0.00 63 1016.2
20260506221952 21 179 6.4 9.7 0.00 0.00 0.00 64 1016.0
20260506221449 21 190 1.6 3.2 0.00 0.00 0.00 64 1016.0
20260506220947 21 185 6.4 11.3 0.00 0.00 0.00 64 1016.2
20260506220442 21 93 1.6 4.8 0.00 0.00 0.00 64 1016.2
20260506215939 21 152 6.4 9.7 0.00 0.00 0.00 65 1016.1
20260506215436 21 154 6.4 9.7 0.00 0.00 0.00 63 1016.1
20260506214931 21 177 3.2 4.8 0.00 0.00 0.00 62 1016.1
20260506214428 21 142 3.2 4.8 0.00 0.00 0.00 63 1016.3
20260506213926 21 99 4.8 9.7 0.00 0.00 0.00 63 1016.1
20260506213423 21 162 8.0 11.3 0.00 0.00 0.00 63 1016.0
20260506212921 21 54 6.4 8.0 0.00 0.00 0.00 64 1016.3
20260506212416 21 168 1.6 1.6 0.00 0.00 0.00 66 1016.5
20260506211911 21 205 3.2 4.8 0.00 0.00 0.00 65 1016.1
20260506211408 22 95 16.1 17.7 0.00 0.00 0.00 62 1016.1
20260506210905 21 128 3.2 4.8 0.00 0.00 0.00 62 1016.5
20260506210401 21 103 3.2 4.8 0.00 0.00 0.00 63 1016.6
20260506205859 21 231 8.0 12.9 0.00 0.00 0.00 61 1016.5
20260506205355 21 225 4.8 8.0 0.00 0.00 0.00 61 1016.5
20260506204851 21 109 3.2 3.2 0.00 0.00 0.00 62 1016.5
20260506204349 21 114 8.0 9.7 0.00 0.00 0.00 63 1016.5
20260506203846 21 155 6.4 9.7 0.00 0.00 0.00 63 1016.6
20260506203343 21 210 8.0 9.7 0.00 0.00 0.00 63 1016.6
20260506202840 21 180 4.8 8.0 0.00 0.00 0.00 64 1016.6
20260506202337 21 206 4.8 8.0 0.00 0.00 0.00 65 1016.7
20260506201834 21 199 4.8 4.8 0.00 0.00 0.00 64 1016.7
20260506201331 21 261 6.4 9.7 0.00 0.00 0.00 64 1016.9
20260506200828 21 112 4.8 8.0 0.00 0.00 0.00 62 1016.7
20260506200324 21 322 6.4 8.0 0.00 0.00 0.00 61 1016.7
20260506195820 22 174 3.2 4.8 0.00 0.00 0.00 62 1016.9
20260506195318 22 176 4.8 4.8 0.00 0.00 0.00 59 1016.8
20260506194815 22 116 9.7 14.5 0.00 0.00 0.00 62 1017.0
20260506194311 23 174 3.2 8.0 0.00 0.00 0.00 58 1017.1
20260506193809 22 203 1.6 3.2 0.00 0.00 0.00 53 1017.0
20260506193305 22 187 3.2 4.8 0.00 0.00 0.00 56 1017.1
20260506192801 22 264 4.8 8.0 0.00 0.00 0.00 57 1017.2
20260506192258 23 248 1.6 3.2 0.00 0.00 0.00 56 1017.1
20260506191756 23 210 3.2 4.8 0.00 0.00 0.00 53 1017.2
20260506191252 23 222 4.8 8.0 0.00 0.00 0.00 54 1017.3
20260506190749 22 266 4.8 8.0 0.00 0.00 0.00 55 1017.4
20260506190240 21 183 0.0 1.6 0.00 0.00 0.00 57 1017.3
20260506185737 21 168 0.0 0.0 0.00 0.00 0.00 58 1017.4
20260506185234 21 241 0.0 0.0 0.00 0.00 0.00 57 1017.5
20260506184731 21 125 4.8 8.0 0.00 0.00 0.00 58 1017.6
20260506184228 21 78 3.2 4.8 0.00 0.00 0.00 58 1017.7
20260506183725 21 142 4.8 8.0 0.00 0.00 0.00 57 1017.6
20260506183221 21 320 6.4 8.0 0.00 0.00 0.00 57 1017.6
20260506182718 21 312 11.3 14.5 0.00 0.00 0.00 56 1017.6
20260506182215 20 168 3.2 4.8 0.00 0.00 0.00 58 1017.7
20260506181713 20 175 1.6 1.6 0.00 0.00 0.00 58 1017.8
20260506181211 20 182 3.2 3.2 0.00 0.00 0.00 57 1017.8
20260506180707 21 306 4.8 8.0 0.00 0.00 0.00 57 1017.9
20260506180203 20 172 3.2 3.2 0.00 0.00 0.00 59 1018.0
20260506175700 20 130 0.0 1.6 0.00 0.00 0.00 58 1018.0
20260506175157 20 157 0.0 0.0 0.00 0.00 0.00 60 1018.0
20260506174654 20 306 3.2 3.2 0.00 0.00 0.00 58 1018.0
20260506174151 20 158 0.0 0.0 0.00 0.00 0.00 62 1018.2
20260506173649 20 131 1.6 3.2 0.00 0.00 0.00 61 1018.1
20260506173145 19 63 0.0 1.6 0.00 0.00 0.00 61 1018.0
20260506172642 20 182 4.8 4.8 0.00 0.00 0.00 59 1018.2
20260506172139 19 149 0.0 0.0 0.00 0.00 0.00 62 1018.1
20260506171631 19 164 3.2 3.2 0.00 0.00 0.00 63 1018.4
20260506171128 18 261 4.8 4.8 0.00 0.00 0.00 62 1018.3
20260506170625 18 230 0.0 1.6 0.00 0.00 0.00 63 1018.1
20260506170117 19 245 3.2 4.8 0.00 0.00 0.00 62 1018.2
20260506165615 19 305 1.6 1.6 0.00 0.00 0.00 60 1018.1
20260506165111 18 106 0.0 0.0 0.00 0.00 0.00 63 1018.3
20260506164608 18 63 0.0 1.6 0.00 0.00 0.00 65 1018.3
20260506164106 18 315 0.0 1.6 0.00 0.00 0.00 68 1018.5
20260506163601 17 340 1.6 1.6 0.00 0.00 0.00 69 1018.4
20260506163057 17 316 1.6 4.8 0.00 0.00 0.00 69 1018.4
20260506162553 17 222 1.6 1.6 0.00 0.00 0.00 70 1018.4
20260506162046 17 87 1.6 1.6 0.00 0.00 0.00 69 1018.4
20260506161543 17 289 3.2 4.8 0.00 0.00 0.00 70 1018.3
20260506161039 17 244 0.0 1.6 0.00 0.00 0.00 70 1018.5
20260506160537 17 158 0.0 0.0 0.00 0.00 0.00 71 1018.4
20260506160034 16 124 0.0 0.0 0.00 0.00 0.00 72 1018.4
20260506155533 16 98 3.2 3.2 0.00 0.00 0.00 72 1018.3
20260506153709 16 99 0.0 0.0 0.00 0.00 0.00 74 1018.5
20260506153207 16 9 0.0 1.6 0.00 0.00 0.00 74 1018.4
20260506152704 16 144 0.0 0.0 0.00 0.00 0.00 75 1018.4
20260506152201 15 156 0.0 0.0 0.00 0.00 0.00 75 1018.5
20260506151700 16 312 1.6 1.6 0.00 0.00 0.00 73 1018.2
20260506151156 16 274 0.0 1.6 0.00 0.00 0.00 73 1018.3
20260506150653 16 103 0.0 0.0 0.00 0.00 0.00 74 1018.5
20260506150150 15 126 0.0 0.0 0.00 0.00 0.00 78 1018.5
20260506145647 15 68 0.0 0.0 0.00 0.00 0.00 80 1018.6
20260506145143 13 179 0.0 0.0 0.00 0.00 0.00 88 1018.5
20260506144641 13 84 0.0 0.0 0.00 0.00 0.00 94 1018.7
20260506144137 12 141 0.0 0.0 0.00 0.00 0.00 97 1018.7
20260506143635 12 141 0.0 0.0 0.00 0.00 0.00 99 1018.5
20260506143133 11 164 0.0 0.0 0.00 0.00 0.00 99 1018.4
20260506142632 11 152 0.0 0.0 0.00 0.00 0.00 99 1018.4
20260506142129 11 152 0.0 0.0 0.00 0.00 0.00 99 1018.4
20260506141626 10 151 0.0 0.0 0.00 0.00 0.00 99 1018.2
20260506141125 10 152 0.0 0.0 0.00 0.00 0.00 99 1018.5
20260506140622 9 154 0.0 0.0 0.00 0.00 0.00 99 1018.6
20260506140119 9 156 0.0 0.0 0.00 0.00 0.00 99 1018.5
20260506135616 8 156 0.0 0.0 0.00 0.00 0.00 99 1018.4
20260506135112 8 172 0.0 0.0 0.00 0.00 0.00 99 1018.2
20260506134609 8 172 0.0 0.0 0.00 0.00 0.00 99 1018.3
20260506134104 8 172 0.0 0.0 0.00 0.00 0.00 99 1018.2
20260506133602 7 171 0.0 0.0 0.00 0.00 0.00 99 1018.1
20260506133059 7 171 0.0 0.0 0.00 0.00 0.00 99 1018.0
20260506132556 7 171 0.0 0.0 0.00 0.00 0.00 99 1018.1
20260506132053 7 171 0.0 0.0 0.00 0.00 0.00 99 1018.3
20260506131550 7 172 0.0 0.0 0.00 0.00 0.00 99 1018.2
20260506131047 7 171 0.0 0.0 0.00 0.00 0.00 99 1018.0
20260506130543 7 171 0.0 0.0 0.00 0.00 0.00 99 1017.8
20260506130041 7 171 0.0 0.0 0.00 0.00 0.00 99 1017.8
20260506125539 7 171 0.0 0.0 0.00 0.00 0.00 99 1017.9